CEB785 RPLL-RPME

Flight info

Callsign CEB785
Flight time 1h 14m
Altitude 35000
Route IPATA2R IPATA B462 TAC W9 BANWA DCT ROLEX TACL2B
Aircraft A21N/M-SDE3FGHIRWY/LB1

Departure

Time 2026-04-26 12:25
Airport Ninoy Aquino International Airport (RPLL)

Arrival

Time 2026-04-26 13:39
Airport Bancasi Airport (RPME)
Time Latitude Longitude Altitude Speed Heading
2026-04-26 11:44 14.52187 121.00994 81 ft 0 kts 46°
2026-04-26 12:14 14.52180 121.00987 81 ft 2 kts 46°
2026-04-26 12:14 14.52169 121.00975 81 ft 2 kts 46°
2026-04-26 12:14 14.52159 121.00964 81 ft 2 kts 46°
2026-04-26 12:14 14.52148 121.00953 81 ft 2 kts 46°
2026-04-26 12:15 14.52138 121.00942 81 ft 1 kts 46°
2026-04-26 12:15 14.52131 121.00934 81 ft 2 kts 33°
2026-04-26 12:15 14.52116 121.00929 81 ft 2 kts
2026-04-26 12:15 14.52101 121.00929 81 ft 2 kts 344°
2026-04-26 12:16 14.52087 121.00936 81 ft 1 kts 321°
2026-04-26 12:16 14.52083 121.00941 81 ft 1 kts 312°
2026-04-26 12:16 14.52080 121.00943 81 ft 0 kts 314°
2026-04-26 12:18 14.52081 121.00942 81 ft 0 kts 314°
2026-04-26 12:18 14.52093 121.00929 81 ft 4 kts 315°
2026-04-26 12:19 14.52117 121.00906 81 ft 5 kts 314°
2026-04-26 12:19 14.52151 121.00870 81 ft 8 kts 315°
2026-04-26 12:19 14.52196 121.00824 81 ft 9 kts 315°
2026-04-26 12:19 14.52245 121.00773 81 ft 10 kts 315°
2026-04-26 12:20 14.52299 121.00718 81 ft 11 kts 315°
2026-04-26 12:20 14.52352 121.00664 81 ft 9 kts 315°
2026-04-26 12:20 14.52403 121.00610 81 ft 10 kts 314°
2026-04-26 12:20 14.52453 121.00558 81 ft 10 kts 315°
2026-04-26 12:21 14.52489 121.00518 81 ft 4 kts 297°
2026-04-26 12:21 14.52484 121.00487 81 ft 5 kts 234°
2026-04-26 12:21 14.52458 121.00457 81 ft 4 kts 226°
2026-04-26 12:21 14.52458 121.00456 81 ft 0 kts 226°
2026-04-26 12:22 14.52457 121.00455 81 ft 0 kts 226°
2026-04-26 12:22 14.52451 121.00449 81 ft 3 kts 226°
2026-04-26 12:22 14.52418 121.00415 81 ft 9 kts 225°
2026-04-26 12:22 14.52382 121.00395 81 ft 4 kts 164°
2026-04-26 12:23 14.52349 121.00420 81 ft 7 kts 137°
2026-04-26 12:23 14.52333 121.00435 81 ft 0 kts 136°
2026-04-26 12:25 14.51899 121.00885 82 ft 115 kts 135°
2026-04-26 12:25 14.51182 121.01627 178 ft 163 kts 134°
2026-04-26 12:25 14.50356 121.02419 827 ft 162 kts 135°
2026-04-26 12:25 14.49534 121.03195 1464 ft 159 kts 135°
2026-04-26 12:26 14.48704 121.03964 1793 ft 162 kts 135°
2026-04-26 12:26 14.47834 121.04756 2117 ft 165 kts 135°
2026-04-26 12:26 14.46969 121.05541 2479 ft 166 kts 135°
2026-04-26 12:26 14.46084 121.06340 2848 ft 167 kts 135°
2026-04-26 12:27 14.45200 121.07137 3216 ft 169 kts 135°
2026-04-26 12:27 14.44293 121.07961 3456 ft 180 kts 135°
2026-04-26 12:27 14.43312 121.08858 3707 ft 192 kts 135°
2026-04-26 12:27 14.42269 121.09824 3982 ft 206 kts 135°
2026-04-26 12:28 14.41150 121.10870 4257 ft 220 kts 135°
2026-04-26 12:28 14.39980 121.11971 4474 ft 238 kts 135°
2026-04-26 12:28 14.38717 121.13172 4781 ft 255 kts 135°
2026-04-26 12:28 14.37364 121.14466 5150 ft 269 kts 135°
2026-04-26 12:29 14.35978 121.15794 5752 ft 273 kts 135°
2026-04-26 12:29 14.34578 121.17134 6392 ft 275 kts 135°
2026-04-26 12:29 14.31682 121.19894 7339 ft 293 kts 135°
2026-04-26 12:30 14.30146 121.21362 7612 ft 309 kts 135°
2026-04-26 12:30 14.28518 121.22922 7882 ft 324 kts 135°
2026-04-26 12:30 14.26832 121.24537 8155 ft 338 kts 135°
2026-04-26 12:31 14.23289 121.27937 9211 ft 347 kts 135°
2026-04-26 12:31 14.21522 121.29632 9760 ft 350 kts 135°
2026-04-26 12:31 14.19710 121.31374 10286 ft 353 kts 135°
2026-04-26 12:31 14.17910 121.33115 10751 ft 357 kts 135°
2026-04-26 12:32 14.16084 121.34887 11233 ft 360 kts 135°
2026-04-26 12:32 14.14240 121.36683 11717 ft 363 kts 135°
2026-04-26 12:32 14.10518 121.40334 12661 ft 369 kts 135°
2026-04-26 12:33 14.08676 121.42153 13107 ft 371 kts 135°
2026-04-26 12:33 14.06790 121.44022 13563 ft 374 kts 135°
2026-04-26 12:33 14.04921 121.45903 13978 ft 376 kts 132°
2026-04-26 12:33 14.03301 121.48073 14370 ft 379 kts 123°
2026-04-26 12:34 14.01877 121.50409 14773 ft 382 kts 120°
2026-04-26 12:34 14.00540 121.52785 15149 ft 385 kts 119°
2026-04-26 12:34 13.99233 121.55229 15528 ft 388 kts 118°
2026-04-26 12:34 13.97962 121.57730 15889 ft 391 kts 117°
2026-04-26 12:35 13.96726 121.60290 16237 ft 394 kts 116°
2026-04-26 12:35 13.95516 121.62828 16583 ft 396 kts 116°
2026-04-26 12:35 13.94290 121.65386 16901 ft 400 kts 116°
2026-04-26 12:35 13.93031 121.67999 17214 ft 403 kts 116°
2026-04-26 12:36 13.91769 121.70614 17528 ft 405 kts 116°
2026-04-26 12:36 13.90501 121.73235 17848 ft 408 kts 116°
2026-04-26 12:36 13.89212 121.75899 18160 ft 410 kts 116°
2026-04-26 12:36 13.87912 121.78548 18455 ft 413 kts 118°
2026-04-26 12:37 13.86444 121.81107 18749 ft 415 kts 123°
2026-04-26 12:37 13.84738 121.83578 19030 ft 417 kts 128°
2026-04-26 12:37 13.82904 121.85884 19310 ft 419 kts 130°
2026-04-26 12:37 13.80987 121.88225 19594 ft 421 kts 130°
2026-04-26 12:38 13.79096 121.90526 19885 ft 423 kts 130°
2026-04-26 12:38 13.77183 121.92857 20167 ft 424 kts 130°
2026-04-26 12:38 13.75235 121.95235 20439 ft 426 kts 130°
2026-04-26 12:38 13.73338 121.97554 20695 ft 428 kts 130°
2026-04-26 12:39 13.71382 121.99946 20952 ft 430 kts 130°
2026-04-26 12:39 13.69432 122.02331 21194 ft 432 kts 130°
2026-04-26 12:39 13.67491 122.04704 21454 ft 434 kts 130°
2026-04-26 12:39 13.65526 122.07107 21707 ft 435 kts 130°
2026-04-26 12:40 13.63552 122.09521 21946 ft 437 kts 130°
2026-04-26 12:40 13.61585 122.11926 22186 ft 439 kts 130°
2026-04-26 12:40 13.59601 122.14351 22424 ft 440 kts 130°
2026-04-26 12:40 13.57628 122.16762 22643 ft 442 kts 130°
2026-04-26 12:41 13.55621 122.19215 22895 ft 443 kts 130°
2026-04-26 12:41 13.53622 122.21656 23135 ft 445 kts 130°
2026-04-26 12:41 13.51613 122.24110 23376 ft 446 kts 130°
2026-04-26 12:41 13.49598 122.26569 23627 ft 447 kts 130°
2026-04-26 12:42 13.47571 122.29042 23884 ft 448 kts 130°
2026-04-26 12:42 13.45570 122.31484 24117 ft 449 kts 130°
2026-04-26 12:42 13.43518 122.33986 24350 ft 450 kts 131°
2026-04-26 12:42 13.41496 122.36453 24571 ft 451 kts 131°
2026-04-26 12:43 13.39454 122.38940 24799 ft 452 kts 131°
2026-04-26 12:43 13.37408 122.41431 25019 ft 454 kts 131°
2026-04-26 12:43 13.35367 122.43917 25238 ft 455 kts 131°
2026-04-26 12:43 13.33312 122.46420 25448 ft 456 kts 131°
2026-04-26 12:44 13.31239 122.48943 25655 ft 457 kts 131°
2026-04-26 12:44 13.29184 122.51444 25850 ft 458 kts 131°
2026-04-26 12:44 13.27106 122.53973 26056 ft 459 kts 131°
2026-04-26 12:44 13.25741 122.55632 26192 ft 460 kts 131°
2026-04-26 12:45 13.22963 122.59010 26451 ft 461 kts 131°
2026-04-26 12:45 13.20885 122.61536 26643 ft 462 kts 131°
2026-04-26 12:45 13.18796 122.64076 26832 ft 463 kts 131°
2026-04-26 12:45 13.16677 122.66650 27015 ft 464 kts 131°
2026-04-26 12:46 13.14598 122.69176 27188 ft 465 kts 131°
2026-04-26 12:46 13.12474 122.71753 27374 ft 466 kts 131°
2026-04-26 12:46 13.10363 122.74316 27548 ft 467 kts 131°
2026-04-26 12:46 13.08263 122.76865 27709 ft 469 kts 132°
2026-04-26 12:47 13.06136 122.79446 27865 ft 470 kts 132°
2026-04-26 12:47 13.03994 122.82044 28073 ft 470 kts 132°
2026-04-26 12:47 13.01880 122.84608 28296 ft 469 kts 132°
2026-04-26 12:47 12.99742 122.87199 28531 ft 469 kts 132°
2026-04-26 12:48 12.97627 122.89762 28772 ft 468 kts 132°
2026-04-26 12:48 12.95516 122.92320 29028 ft 467 kts 132°
2026-04-26 12:48 12.93408 122.94872 29311 ft 466 kts 132°
2026-04-26 12:48 12.91305 122.97418 29618 ft 463 kts 132°
2026-04-26 12:49 12.89173 123.00001 29940 ft 461 kts 132°
2026-04-26 12:49 12.87043 123.02579 30268 ft 459 kts 132°
2026-04-26 12:49 12.84953 123.05107 30576 ft 457 kts 132°
2026-04-26 12:49 12.82886 123.07608 30873 ft 455 kts 132°
2026-04-26 12:50 12.80809 123.10119 31188 ft 453 kts 132°
2026-04-26 12:50 12.78790 123.12562 31498 ft 451 kts 133°
2026-04-26 12:50 12.76740 123.15040 31804 ft 450 kts 133°
2026-04-26 12:50 12.74692 123.17512 32097 ft 448 kts 133°
2026-04-26 12:51 12.72669 123.19953 32379 ft 447 kts 133°
2026-04-26 12:51 12.70669 123.22368 32676 ft 445 kts 133°
2026-04-26 12:51 12.68647 123.24810 32999 ft 444 kts 133°
2026-04-26 12:51 12.66620 123.27258 33271 ft 443 kts 133°
2026-04-26 12:52 12.64610 123.29681 33466 ft 445 kts 133°
2026-04-26 12:52 12.62582 123.32125 33640 ft 446 kts 133°
2026-04-26 12:52 12.60550 123.34575 33842 ft 447 kts 133°
2026-04-26 12:52 12.58483 123.37066 34047 ft 448 kts 133°
2026-04-26 12:53 12.56432 123.39539 34237 ft 449 kts 133°
2026-04-26 12:53 12.54392 123.41996 34440 ft 450 kts 133°
2026-04-26 12:53 12.52321 123.44492 34636 ft 451 kts 133°
2026-04-26 12:53 12.50289 123.46939 34807 ft 452 kts 133°
2026-04-26 12:54 12.48223 123.49428 34868 ft 453 kts 133°
2026-04-26 12:54 12.44076 123.54422 34874 ft 459 kts 132°
2026-04-26 12:55 12.39869 123.59486 34874 ft 466 kts 132°
2026-04-26 12:55 12.35649 123.64576 34876 ft 470 kts 132°
2026-04-26 12:56 12.31411 123.69804 34875 ft 471 kts 132°
2026-04-26 12:56 12.27234 123.74972 34872 ft 471 kts 132°
2026-04-26 12:57 12.23033 123.80160 34872 ft 471 kts 132°
2026-04-26 12:57 12.18811 123.85370 34871 ft 471 kts 131°
2026-04-26 12:58 12.12527 123.93117 34870 ft 470 kts 131°
2026-04-26 12:58 12.08328 123.98292 34868 ft 469 kts 131°
2026-04-26 12:59 12.04141 124.03447 34874 ft 470 kts 131°
2026-04-26 12:59 11.99944 124.08613 34866 ft 471 kts 131°
2026-04-26 13:00 11.95714 124.13818 34876 ft 472 kts 131°
2026-04-26 13:00 11.91494 124.19011 34880 ft 471 kts 131°
2026-04-26 13:01 11.87253 124.24226 34889 ft 471 kts 131°
2026-04-26 13:01 11.82989 124.29455 34891 ft 470 kts 131°
2026-04-26 13:02 11.78789 124.34600 34888 ft 470 kts 131°
2026-04-26 13:02 11.74564 124.39781 34884 ft 470 kts 131°
2026-04-26 13:03 11.70365 124.44930 34882 ft 470 kts 131°
2026-04-26 13:03 11.66146 124.50098 34890 ft 470 kts 131°
2026-04-26 13:04 11.61907 124.55293 34893 ft 470 kts 131°
2026-04-26 13:04 11.57709 124.60436 34893 ft 470 kts 131°
2026-04-26 13:05 11.53474 124.65623 34895 ft 470 kts 131°
2026-04-26 13:05 11.49276 124.70757 34896 ft 470 kts 131°
2026-04-26 13:06 11.45027 124.75942 34889 ft 469 kts 131°
2026-04-26 13:06 11.40806 124.81094 34884 ft 469 kts 131°
2026-04-26 13:07 11.36601 124.86233 34887 ft 469 kts 131°
2026-04-26 13:07 11.32373 124.91396 34890 ft 469 kts 131°
2026-04-26 13:08 11.27956 124.96478 34889 ft 468 kts 137°
2026-04-26 13:08 11.22775 125.00575 34893 ft 466 kts 149°
2026-04-26 13:09 11.16917 125.03487 34894 ft 464 kts 161°
2026-04-26 13:09 11.10652 125.05180 34898 ft 462 kts 169°
2026-04-26 13:10 11.04354 125.06454 34895 ft 462 kts 169°
2026-04-26 13:10 10.97956 125.07742 34889 ft 462 kts 169°
2026-04-26 13:11 10.94772 125.08388 34884 ft 451 kts 169°
2026-04-26 13:11 10.91691 125.09016 34886 ft 448 kts 169°
2026-04-26 13:11 10.88587 125.09648 34713 ft 448 kts 169°
2026-04-26 13:11 10.85472 125.10282 34416 ft 445 kts 169°
2026-04-26 13:12 10.82424 125.10979 34115 ft 443 kts 166°
2026-04-26 13:12 10.79426 125.11834 33817 ft 440 kts 163°
2026-04-26 13:12 10.76477 125.12779 33525 ft 439 kts 162°
2026-04-26 13:13 10.71159 125.14500 32995 ft 440 kts 162°
2026-04-26 13:13 10.68236 125.15447 32707 ft 440 kts 162°
2026-04-26 13:13 10.65267 125.16408 32424 ft 441 kts 162°
2026-04-26 13:13 10.62296 125.17371 32171 ft 442 kts 162°
2026-04-26 13:14 10.59309 125.18338 31820 ft 444 kts 162°
2026-04-26 13:14 10.56335 125.19302 31199 ft 445 kts 162°
2026-04-26 13:14 10.53371 125.20261 30408 ft 449 kts 162°
2026-04-26 13:14 10.50319 125.21249 29513 ft 454 kts 162°
2026-04-26 13:15 10.47286 125.22230 28604 ft 459 kts 162°
2026-04-26 13:15 10.44235 125.23215 27906 ft 459 kts 162°
2026-04-26 13:15 10.41166 125.24206 27192 ft 459 kts 162°
2026-04-26 13:15 10.38083 125.25199 26457 ft 460 kts 162°
2026-04-26 13:16 10.35018 125.26189 25727 ft 459 kts 162°
2026-04-26 13:16 10.31953 125.27178 25011 ft 459 kts 162°
2026-04-26 13:16 10.28874 125.28172 24358 ft 456 kts 162°
2026-04-26 13:16 10.25850 125.29147 23759 ft 453 kts 161°
2026-04-26 13:17 10.19813 125.31097 22609 ft 446 kts 161°
2026-04-26 13:17 10.16834 125.32058 22046 ft 443 kts 161°
2026-04-26 13:18 10.10962 125.33953 20952 ft 437 kts 161°
2026-04-26 13:18 10.08063 125.34889 20420 ft 434 kts 161°
2026-04-26 13:18 10.02302 125.36746 19344 ft 428 kts 161°
2026-04-26 13:19 9.99431 125.37671 18801 ft 426 kts 161°
2026-04-26 13:19 9.96593 125.38586 18269 ft 423 kts 161°
2026-04-26 13:19 9.93727 125.39510 17719 ft 421 kts 161°
2026-04-26 13:19 9.90941 125.40408 17183 ft 419 kts 161°
2026-04-26 13:20 9.88099 125.41322 16634 ft 417 kts 161°
2026-04-26 13:20 9.85322 125.42217 16117 ft 414 kts 160°
2026-04-26 13:20 9.82582 125.43099 15597 ft 408 kts 160°
2026-04-26 13:20 9.79857 125.43977 15095 ft 401 kts 160°
2026-04-26 13:21 9.77182 125.44839 14603 ft 394 kts 160°
2026-04-26 13:21 9.74509 125.45699 14104 ft 388 kts 160°
2026-04-26 13:21 9.71942 125.46519 13711 ft 382 kts 161°
2026-04-26 13:21 9.69278 125.46963 13511 ft 382 kts 176°
2026-04-26 13:22 9.66611 125.46703 13323 ft 385 kts 191°
2026-04-26 13:22 9.64024 125.45975 13141 ft 384 kts 195°
2026-04-26 13:22 9.61447 125.45171 12952 ft 383 kts 196°
2026-04-26 13:22 9.58883 125.44363 12763 ft 382 kts 195°
2026-04-26 13:23 9.56311 125.43563 12571 ft 377 kts 195°
2026-04-26 13:23 9.53800 125.42791 12377 ft 366 kts 195°
2026-04-26 13:23 9.51370 125.42049 12184 ft 355 kts 195°
2026-04-26 13:23 9.48980 125.41321 11989 ft 345 kts 195°
2026-04-26 13:24 9.46681 125.40622 11794 ft 335 kts 195°
2026-04-26 13:24 9.44438 125.39942 11599 ft 326 kts 195°
2026-04-26 13:24 9.42241 125.39275 11401 ft 317 kts 194°
2026-04-26 13:24 9.40149 125.38641 11191 ft 309 kts 194°
2026-04-26 13:25 9.38044 125.38004 10999 ft 309 kts 194°
2026-04-26 13:25 9.35983 125.37382 10812 ft 309 kts 194°
2026-04-26 13:25 9.33892 125.36748 10549 ft 305 kts 194°
2026-04-26 13:25 9.31866 125.36133 10186 ft 304 kts 194°
2026-04-26 13:26 9.29802 125.35503 9816 ft 302 kts 194°
2026-04-26 13:26 9.27793 125.34893 9447 ft 300 kts 194°
2026-04-26 13:26 9.25749 125.34270 9080 ft 299 kts 194°
2026-04-26 13:26 9.23749 125.33662 8721 ft 297 kts 194°
2026-04-26 13:27 9.21777 125.33062 8354 ft 295 kts 194°
2026-04-26 13:27 9.19787 125.32457 8013 ft 293 kts 194°
2026-04-26 13:27 9.17827 125.31860 7691 ft 289 kts 194°
2026-04-26 13:27 9.15892 125.31273 7349 ft 285 kts 194°
2026-04-26 13:28 9.13986 125.30692 7064 ft 278 kts 194°
2026-04-26 13:28 9.12166 125.30103 6848 ft 271 kts 201°
2026-04-26 13:28 9.10686 125.28948 6683 ft 266 kts 235°
2026-04-26 13:28 9.10083 125.27179 6260 ft 269 kts 269°
2026-04-26 13:29 9.10432 125.25347 5857 ft 268 kts 297°
2026-04-26 13:29 9.11600 125.23881 5475 ft 263 kts 327°
2026-04-26 13:29 9.13273 125.23155 5111 ft 256 kts 355°
2026-04-26 13:29 9.15015 125.23286 4896 ft 247 kts 19°
2026-04-26 13:30 9.16698 125.23786 4863 ft 250 kts 19°
2026-04-26 13:30 9.18418 125.24293 4846 ft 250 kts 19°
2026-04-26 13:30 9.20099 125.24772 4840 ft 251 kts 18°
2026-04-26 13:30 9.21797 125.25247 4835 ft 250 kts 19°
2026-04-26 13:31 9.23376 125.26007 4817 ft 245 kts 44°
2026-04-26 13:31 9.24347 125.27389 4831 ft 241 kts 71°
2026-04-26 13:31 9.24587 125.29084 4836 ft 241 kts 96°
2026-04-26 13:31 9.24055 125.30696 4833 ft 243 kts 121°
2026-04-26 13:32 9.22867 125.31901 4836 ft 246 kts 147°
2026-04-26 13:32 9.21218 125.32454 4835 ft 252 kts 174°
2026-04-26 13:32 9.19459 125.32169 4843 ft 257 kts 197°
2026-04-26 13:32 9.17760 125.31602 4802 ft 253 kts 193°
2026-04-26 13:33 9.16042 125.31152 4671 ft 252 kts 191°
2026-04-26 13:33 9.14305 125.30712 4695 ft 255 kts 192°
2026-04-26 13:33 9.12571 125.30244 4571 ft 257 kts 193°
2026-04-26 13:33 9.10849 125.29735 4201 ft 257 kts 194°
2026-04-26 13:34 9.09105 125.29209 3789 ft 256 kts 194°
2026-04-26 13:34 9.07384 125.28695 3431 ft 255 kts 193°
2026-04-26 13:34 9.05663 125.28501 3258 ft 239 kts 164°
2026-04-26 13:34 9.04688 125.28922 3204 ft 223 kts 139°
2026-04-26 13:35 9.03535 125.30565 3220 ft 204 kts 112°
2026-04-26 13:35 9.02961 125.31839 3068 ft 192 kts 113°
2026-04-26 13:35 9.02413 125.33015 2886 ft 175 kts 114°
2026-04-26 13:35 9.01916 125.34057 2771 ft 158 kts 114°
2026-04-26 13:36 9.01441 125.35040 2637 ft 150 kts 114°
2026-04-26 13:36 9.00982 125.35985 2472 ft 149 kts 114°
2026-04-26 13:36 9.00518 125.36935 2272 ft 148 kts 114°
2026-04-26 13:36 9.00063 125.37867 2076 ft 147 kts 114°
2026-04-26 13:37 8.99603 125.38808 1881 ft 147 kts 114°
2026-04-26 13:37 8.99152 125.39725 1690 ft 146 kts 114°
2026-04-26 13:37 8.98695 125.40657 1492 ft 146 kts 114°
2026-04-26 13:37 8.98236 125.41592 1301 ft 146 kts 114°
2026-04-26 13:38 8.97784 125.42510 1113 ft 145 kts 114°
2026-04-26 13:38 8.97331 125.43431 920 ft 145 kts 114°
2026-04-26 13:38 8.96864 125.44350 739 ft 145 kts 115°
2026-04-26 13:38 8.96413 125.45261 544 ft 144 kts 114°
2026-04-26 13:39 8.95986 125.46174 340 ft 144 kts 115°
2026-04-26 13:39 8.95539 125.47086 157 ft 143 kts 115°
2026-04-26 13:39 8.95159 125.47862 149 ft 85 kts 116°
2026-04-26 13:39 8.95022 125.48141 149 ft 15 kts 118°
2026-04-26 13:40 8.94984 125.48216 149 ft 10 kts 115°
2026-04-26 13:40 8.94958 125.48272 149 ft 5 kts 115°
2026-04-26 13:40 8.94937 125.48307 149 ft 5 kts 148°
2026-04-26 13:40 8.94905 125.48288 149 ft 6 kts 242°
2026-04-26 13:41 8.94890 125.48242 149 ft 7 kts 269°
2026-04-26 13:41 8.94910 125.48193 149 ft 7 kts 298°
2026-04-26 13:41 8.94928 125.48156 149 ft 6 kts 296°
2026-04-26 13:41 8.94943 125.48122 149 ft 4 kts 273°
2026-04-26 13:42 8.94929 125.48092 149 ft 5 kts 236°
2026-04-26 13:42 8.94915 125.48072 149 ft 2 kts 236°
2026-04-26 13:42 8.94915 125.48071 149 ft 0 kts 236°